Latest Coastal Weather Observations for Kingfish B

IDV60701

Issued at 11:15 pm EDT Saturday 25 October 2014 (issued every 10 minutes, with the page automatically refreshed every 10 minutes)

About coastal observations | Map of coastal stations | Coastal observations for VIC | Marine services | Other Formats
Station Details ID: 400139 Name: KINGFISH B (PLATFORM) Lat: -38.60 Lon: 148.19 Height: 31.4 m
Data from the previous 72 hours. | See also: Recent months for locations in Victoria
Date/Time
EDT
Temp

°C
Wind Pressure Rain
since 9am
mm
Weather Cloud Vis
km
Sea
Height
m
Swell
Dir
 
Speed
knots
Gust
knots
hPa Trend Height
m
Period
s
Dir
25/11:00pm 14.5 SSE 0 2 1016.1 - - - - - - - - -
25/10:50pm 14.6 S 0 1 1016.2 - - - - - - - - -
25/10:40pm 14.6 S 1 2 1016.2 - - - - - - - - -
25/10:30pm 14.6 S 0 2 1016.3 - - - - - - - - -
25/10:20pm 14.5 ESE 0 1 1016.3 - - - - - - - - -
25/10:10pm 14.5 E 0 2 1016.2 - - - - - - - - -
25/10:00pm 14.5 E 0 2 1016.3 - - - - - - - - -
25/09:50pm 14.5 E 0 1 1016.3 - - - - - - - - -
25/09:40pm 14.6 ESE 0 1 1016.3 - - - - - - - - -
25/09:30pm 14.6 SE 0 1 1016.4 - - - - - - - - -
25/09:20pm 14.6 SSE 0 2 1016.4 - - - - - - - - -
25/09:10pm 14.7 ESE 0 3 1016.4 - - - - - - - - -
25/09:00pm 14.7 SE 1 6 1016.5 - - - - - - - - -
25/08:50pm 14.7 SE 2 6 1016.4 - - - - - - - - -
25/08:40pm 14.7 ESE 3 7 1016.2 - - - - - - - - -
25/08:30pm 14.7 ESE 4 7 1016.1 - - - - - - - - -
25/08:20pm 14.7 ESE 5 8 1016.1 - - - - - - - - -
25/08:10pm 14.7 ESE 3 7 1016.1 - - - - - - - - -
25/08:00pm 14.7 ESE 4 8 1016.0 - - - - - - - - -
25/07:50pm 14.6 ESE 4 7 1016.0 - - - - - - - - -
25/07:40pm 14.7 ESE 3 7 1015.9 - - - - - - - - -
25/07:30pm 14.7 E 2 6 1015.9 - - - - - - - - -
25/07:20pm 14.8 ESE 2 7 1015.8 - - - - - - - - -
25/07:10pm 14.8 SE 3 8 1015.8 - - - - - - - - -
25/07:00pm 14.8 SE 3 6 1015.8 - - - - - - - - -
25/06:50pm 14.9 SSE 2 5 1015.7 - - - - - - - - -
25/06:40pm 14.8 SSE 2 6 1015.6 - - - - - - - - -
25/06:30pm 14.9 SSE 3 4 1015.5 - - - - - - - - -
25/06:20pm 14.9 SSE 4 6 1015.5 - - - - - - - - -
25/06:00pm 14.9 SSE 5 7 1015.3 - - - - - - - - -
25/05:50pm 14.9 SSE 5 6 1015.2 - - - - - - - - -
25/05:40pm 14.9 SSE 4 5 1015.2 - - - - - - - - -
25/05:30pm 15.0 SSE 5 7 1015.2 - - - - - - - - -
25/05:20pm 14.9 SSE 4 6 1015.1 - - - - - - - - -
25/05:10pm 14.9 SSE 6 8 1015.2 - - - - - - - - -
25/05:00pm 14.9 S 6 8 1015.3 - - - - - - - - -
25/04:50pm 15.0 S 6 7 1015.3 - - - - - - - - -
25/04:40pm 15.0 S 6 7 1015.1 - - - - - - - - -
25/04:30pm 15.1 S 5 7 1015.1 - - - - - - - - -
25/04:20pm 15.0 S 6 8 1015.2 - - - - - - - - -
25/04:10pm 15.0 S 6 7 1015.3 - - - - - - - - -
25/04:00pm 15.1 S 6 7 1015.3 - - - - - - - - -
25/03:50pm 15.2 S 5 7 1015.4 - - - - - - - - -
25/03:40pm 15.4 S 4 6 1015.5 - - - - - - - - -
25/03:30pm 15.7 SSW 2 5 1015.4 - - - - - - - - -
25/03:20pm 16.5 SW 2 3 1015.6 - - - - - - - - -
25/03:10pm 16.5 SW 3 4 1015.6 - - - - - - - - -
25/03:00pm 16.5 SW 3 5 1015.7 - - - - - - - - -
25/02:50pm 16.4 SW 3 5 1015.7 - - - - - - - - -
25/02:40pm 16.2 SW 4 6 1015.7 - - - - - - - - -
25/02:30pm 15.9 SSW 4 5 1015.6 - - - - - - - - -
25/02:20pm 16.1 SSW 3 5 1015.7 - - - - - - - - -
25/02:10pm 16.1 SSW 3 5 1015.7 - - - - - - - - -
25/02:00pm 16.6 SSW 3 6 1015.8 - - - - - - - - -
25/01:50pm 17.1 SW 3 4 1015.9 - - - - - - - - -
25/01:40pm 16.9 SW 4 5 1016.0 - - - - - - - - -
25/01:30pm 16.8 SW 4 6 1016.0 - - - - - - - - -
25/01:20pm 16.4 SW 5 7 1016.0 - - - - - - - - -
25/01:10pm 16.5 SW 5 7 1016.1 - - - - - - - - -
25/01:00pm 15.8 SSW 6 8 1016.2 - - - - - - - - -
25/12:40pm 16.3 SSW 8 10 1016.5 - - - - - - - - -
25/12:30pm 17.7 SW 7 9 1016.5 - - - - - - - - -
25/12:20pm 17.6 SW 7 9 1016.6 - - - - - - - - -
25/12:10pm 17.2 SW 7 8 1016.8 - - - - - - - - -
25/12:00pm 17.1 WSW 7 9 1017.0 - - - - - - - - -
25/11:50am 16.9 SW 7 9 1017.1 - - - - - - - - -
25/11:40am 16.6 SW 7 10 1017.2 - - - - - - - - -
25/11:30am 16.7 SW 8 10 1017.1 - - - - - - - - -
25/11:20am 16.7 SW 7 10 1017.3 - - - - - - - - -
25/11:10am 16.7 SW 7 9 1017.3 - - - - - - - - -
25/11:00am 16.6 SW 8 10 1017.3 - - - - - - - - -
25/10:50am 16.4 SW 10 14 1017.3 - - - - - - - - -
25/10:40am 16.4 WSW 11 13 1017.2 - - - - - - - - -
25/10:30am 16.6 WSW 10 12 1017.2 - - - - - - - - -
25/10:20am 16.5 SW 10 14 1017.2 - - - - - - - - -
25/10:10am 16.1 SW 10 13 1017.0 - - - - - - - - -
25/10:00am 15.8 WSW 12 14 1017.0 - - - - - - - - -
25/09:50am 15.8 WSW 11 14 1017.0 - - - - - - - - -
25/09:40am 15.5 WSW 13 16 1016.7 - - - - - - - - -
25/09:30am 15.4 WSW 13 15 1016.8 - - - - - - - - -
25/09:20am 15.3 WSW 13 15 1016.8 - - - - - - - - -
25/09:10am 15.3 WSW 12 15 1016.7 - - - - - - - - -
25/09:00am 15.3 WSW 13 16 1016.7 - - - - - - - - -
25/08:50am 15.3 WSW 12 15 1016.7 - - - - - - - - -
25/08:40am 15.2 WSW 13 16 1016.4 - - - - - - - - -
25/08:30am 15.2 WSW 12 16 1016.5 - - - - - - - - -
25/08:20am 15.1 WSW 13 17 1016.3 - - - - - - - - -
25/08:10am 15.1 WSW 14 17 1016.2 - - - - - - - - -
25/08:00am 15.1 WSW 14 16 1016.2 - - - - - - - - -
25/07:50am 15.1 WSW 13 16 1016.2 - - - - - - - - -
25/07:40am 15.0 WSW 15 20 1016.0 - - - - - - - - -
25/07:30am 15.0 WSW 15 17 1015.9 - - - - - - - - -
25/07:20am 14.9 WSW 15 18 1015.8 - - - - - - - - -
25/07:10am 14.9 WSW 15 19 1015.8 - - - - - - - - -
25/07:00am 14.9 WSW 16 19 1015.6 - - - - - - - - -
25/06:40am 14.9 SW 15 20 1015.6 - - - - - - - - -
25/06:30am 14.8 SW 16 21 1015.3 - - - - - - - - -
25/06:20am 14.8 SW 16 20 1015.2 - - - - - - - - -
25/06:10am 14.8 SW 16 19 1015.3 - - - - - - - - -
25/06:00am 14.9 SW 14 17 1015.1 - - - - - - - - -
25/05:50am 14.9 WSW 16 19 1014.7 - - - - - - - - -
25/05:40am 14.7 WSW 18 22 1014.4 - - - - - - - - -
25/05:30am 14.6 SW 19 23 1014.4 - - - - - - - - -
25/05:20am 14.6 SW 19 23 1014.3 - - - - - - - - -
25/05:10am 14.7 SW 20 23 1014.1 - - - - - - - - -
25/05:00am 14.7 SW 20 22 1013.9 - - - - - - - - -
25/04:50am 14.9 SW 21 24 1014.0 - - - - - - - - -
25/04:40am 14.9 SW 18 23 1014.2 - - - - - - - - -
25/04:30am 14.9 SW 17 20 1014.4 - - - - - - - - -
25/04:20am 14.9 SW 19 22 1014.3 - - - - - - - - -
25/04:10am 14.9 SW 17 22 1014.1 - - - - - - - - -
25/04:00am 14.8 SW 20 24 1013.9 - - - - - - - - -
25/03:50am 14.7 SW 20 23 1013.8 - - - - - - - - -
25/03:40am 14.8 SW 20 24 1013.7 - - - - - - - - -
25/03:30am 14.9 SW 21 24 1013.6 - - - - - - - - -
25/03:20am 15.0 SW 19 23 1013.6 - - - - - - - - -
25/03:10am 15.0 SW 18 22 1013.5 - - - - - - - - -
25/03:00am 15.0 SW 18 21 1013.5 - - - - - - - - -
25/02:50am 15.1 SW 17 20 1013.3 - - - - - - - - -
25/02:40am 15.1 SW 16 18 1013.3 - - - - - - - - -
25/02:30am 15.2 SW 16 19 1013.3 - - - - - - - - -
25/02:20am 15.2 SW 15 18 1013.4 - - - - - - - - -
25/02:10am 15.3 SW 14 18 1013.4 - - - - - - - - -
25/01:50am 15.4 SW 13 17 1013.4 - - - - - - - - -
25/01:40am 15.4 SW 13 16 1013.3 - - - - - - - - -
25/01:30am 15.3 SW 11 13 1013.2 - - - - - - - - -
25/01:20am 15.4 SW 12 15 1013.3 - - - - - - - - -
25/01:10am 15.5 SW 10 14 1013.4 - - - - - - - - -
25/01:00am 15.5 SW 9 11 1013.4 - - - - - - - - -
25/12:50am 15.6 WSW 7 10 1013.4 - - - - - - - - -
25/12:40am 15.6 SW 8 11 1013.4 - - - - - - - - -
25/12:30am 15.7 SW 8 11 1013.5 - - - - - - - - -
25/12:20am 15.8 SW 8 10 1013.5 - - - - - - - - -
25/12:10am 16.0 SW 7 9 1013.4 - - - - - - - - -
25/12:00am 16.1 SW 7 9 1013.5 - - - - - - - - -
 
Date/Time
EDT
Temp

°C
Wind Pressure Rain
since 9am
mm
Weather Cloud Vis
km
Sea
Height
m
Swell
Dir
 
Speed
knots
Gust
knots
hPa Trend Height
m
Period
s
Dir
24/11:50pm 16.1 SW 9 13 1013.5 - - - - - - - - -
24/11:40pm 16.3 SW 12 14 1013.4 - - - - - - - - -
24/11:30pm 16.5 SW 14 18 1013.3 - - - - - - - - -
24/11:20pm 17.0 SW 15 18 1013.4 - - - - - - - - -
24/11:10pm 17.3 SW 14 18 1013.4 - - - - - - - - -
24/11:00pm 17.5 SW 13 17 1013.2 - - - - - - - - -
24/10:50pm 17.8 SW 11 15 1013.1 - - - - - - - - -
24/10:40pm 18.0 SW 11 16 1013.0 - - - - - - - - -
24/10:30pm 18.2 SW 10 14 1013.0 - - - - - - - - -
24/10:20pm 18.2 SW 9 11 1013.0 - - - - - - - - -
24/10:10pm 18.3 SW 7 11 1012.8 - - - - - - - - -
24/10:00pm 18.4 SW 5 7 1012.7 - - - - - - - - -
24/09:50pm 18.4 SW 8 13 1012.7 - - - - - - - - -
24/09:40pm 18.3 SW 11 13 1012.5 - - - - - - - - -
24/09:30pm 18.3 SW 10 11 1012.2 - - - - - - - - -
24/09:20pm 18.3 SW 9 11 1012.1 - - - - - - - - -
24/09:10pm 18.4 SW 8 10 1012.0 - - - - - - - - -
24/09:00pm 18.5 SW 5 6 1011.9 - - - - - - - - -
24/08:50pm 18.4 SW 3 4 1011.8 - - - - - - - - -
24/08:40pm 18.2 WSW 1 2 1011.7 - - - - - - - - -
24/08:30pm 17.9 WSW 1 2 1011.4 - - - - - - - - -
24/08:20pm 18.0 SW 0 0 1011.3 - - - - - - - - -
24/08:10pm 17.9 NE 0 0 1011.1 - - - - - - - - -
24/08:00pm 17.9 NE 0 0 1010.9 - - - - - - - - -
24/07:50pm 18.1 NE 0 0 1010.7 - - - - - - - - -
24/07:40pm 18.3 NE 0 0 1010.7 - - - - - - - - -
24/07:30pm 18.4 NE 0 0 1010.5 - - - - - - - - -
24/07:20pm 18.6 NE 0 0 1010.4 - - - - - - - - -
24/07:10pm 18.5 NE 0 0 1010.3 - - - - - - - - -
24/07:00pm 18.6 NE 0 0 1010.2 - - - - - - - - -
24/06:50pm 18.8 NW 0 0 1010.1 - - - - - - - - -
24/06:40pm 18.8 NNW 0 1 1009.9 - - - - - - - - -
24/06:30pm 19.0 NNE 1 4 1009.9 - - - - - - - - -
24/06:10pm 19.2 N 1 3 1009.9 - - - - - - - - -
24/06:00pm 19.2 NW 1 2 1010.0 - - - - - - - - -
24/05:50pm 19.1 WNW 0 0 1010.0 - - - - - - - - -
24/05:40pm 19.0 WNW 0 3 1009.9 - - - - - - - - -
24/05:30pm 19.2 WSW 0 0 1009.9 - - - - - - - - -
24/05:10pm 19.2 NW 0 3 1009.7 - - - - - - - - -
24/05:00pm 19.1 NNW 1 3 1009.6 - - - - - - - - -
24/04:50pm 18.9 NW 1 2 1009.6 - - - - - - - - -
24/04:40pm 19.0 NW 0 1 1009.7 - - - - - - - - -
24/04:30pm 18.8 NNW 2 3 1009.7 - - - - - - - - -
24/04:20pm 18.5 N 2 5 1009.5 - - - - - - - - -
24/04:10pm 18.4 NNE 2 5 1009.5 - - - - - - - - -
24/04:00pm 18.5 NNE 3 5 1009.6 - - - - - - - - -
24/03:50pm 18.5 NNE 3 6 1009.7 - - - - - - - - -
24/03:40pm 18.5 N 2 5 1009.8 - - - - - - - - -
24/03:30pm 18.5 NNE 4 9 1009.8 - - - - - - - - -
24/03:20pm 18.4 N 3 9 1009.8 - - - - - - - - -
24/03:10pm 18.4 NE 10 12 1009.7 - - - - - - - - -
24/03:00pm 18.3 NE 11 14 1009.7 - - - - - - - - -
24/02:50pm 18.2 NE 12 15 1009.8 - - - - - - - - -
24/02:40pm 18.2 NE 12 14 1009.9 - - - - - - - - -
24/02:30pm 18.2 NE 12 14 1010.0 - - - - - - - - -
24/02:20pm 18.2 NE 13 14 1010.0 - - - - - - - - -
24/02:10pm 18.2 NE 14 16 1010.0 - - - - - - - - -
24/02:00pm 18.2 NE 14 15 1010.1 - - - - - - - - -
24/01:50pm 18.1 NE 14 16 1010.2 - - - - - - - - -
24/01:40pm 18.0 NE 14 16 1010.2 - - - - - - - - -
24/01:30pm 18.0 NE 15 17 1010.2 - - - - - - - - -
24/01:20pm 18.0 NE 15 17 1010.2 - - - - - - - - -
24/01:10pm 17.9 NE 16 18 1010.2 - - - - - - - - -
24/01:00pm 18.1 NE 17 19 1010.2 - - - - - - - - -
24/12:50pm 18.2 NE 18 20 1010.3 - - - - - - - - -
24/12:40pm 18.1 NE 18 20 1010.4 - - - - - - - - -
24/12:30pm 18.1 NE 17 20 1010.5 - - - - - - - - -
24/12:20pm 18.1 NE 17 19 1010.7 - - - - - - - - -
24/12:10pm 18.1 NE 15 17 1010.9 - - - - - - - - -
24/12:00pm 18.2 NE 14 16 1011.1 - - - - - - - - -
24/11:50am 18.2 NE 14 16 1011.3 - - - - - - - - -
24/11:40am 18.1 NE 14 16 1011.5 - - - - - - - - -
24/11:20am 18.0 NE 17 19 1011.7 - - - - - - - - -
24/11:10am 18.0 NE 17 20 1011.9 - - - - - - - - -
24/11:00am 18.0 NE 18 20 1011.9 - - - - - - - - -
24/10:50am 17.9 NE 19 21 1012.0 - - - - - - - - -
24/10:40am 17.9 NE 20 23 1012.1 - - - - - - - - -
24/10:30am 17.9 NE 21 24 1012.1 - - - - - - - - -
24/10:20am 17.9 NE 21 24 1012.3 - - - - - - - - -
24/10:10am 17.9 NE 22 26 1012.4 - - - - - - - - -
24/10:00am 17.9 NE 22 25 1012.6 - - - - - - - - -
24/09:50am 17.9 NE 23 26 1012.7 - - - - - - - - -
24/09:40am 17.9 NE 24 28 1012.6 - - - - - - - - -
24/09:30am 17.8 NE 24 27 1012.8 - - - - - - - - -
24/09:20am 17.8 NE 25 29 1012.8 - - - - - - - - -
24/09:10am 17.7 NE 24 28 1013.0 - - - - - - - - -
24/09:00am 17.6 NE 25 30 1013.1 - - - - - - - - -
24/08:50am 17.5 NE 27 32 1013.0 - - - - - - - - -
24/08:40am 17.3 NE 28 33 1013.1 - - - - - - - - -
24/08:30am 17.2 NE 26 30 1013.3 - - - - - - - - -
24/08:20am 17.1 NE 27 31 1013.4 - - - - - - - - -
24/08:10am 17.1 NE 27 32 1013.6 - - - - - - - - -
24/08:00am 17.0 NE 25 31 1013.8 - - - - - - - - -
24/07:50am 17.0 NE 24 29 1014.0 - - - - - - - - -
24/07:40am 17.0 ENE 23 28 1014.0 - - - - - - - - -
24/07:30am 17.0 ENE 23 27 1014.0 - - - - - - - - -
24/07:20am 16.9 ENE 20 28 1014.1 - - - - - - - - -
24/07:10am 16.9 ENE 20 26 1014.3 - - - - - - - - -
24/07:00am 16.8 ENE 20 26 1014.2 - - - - - - - - -
24/06:50am 16.8 ENE 21 27 1014.3 - - - - - - - - -
24/06:40am 16.8 ENE 21 27 1014.3 - - - - - - - - -
24/06:20am 16.7 ENE 19 24 1014.5 - - - - - - - - -
24/06:10am 16.7 ENE 18 22 1014.6 - - - - - - - - -
24/06:00am 16.7 ENE 18 24 1014.6 - - - - - - - - -
24/05:50am 16.7 ENE 18 23 1014.7 - - - - - - - - -
24/05:40am 16.6 ENE 19 24 1014.7 - - - - - - - - -
24/05:30am 16.6 ENE 19 24 1014.6 - - - - - - - - -
24/05:20am 16.6 ENE 18 24 1014.7 - - - - - - - - -
24/05:00am 16.6 ENE 18 24 1014.9 - - - - - - - - -
24/04:50am 16.6 ENE 18 22 1015.1 - - - - - - - - -
24/04:40am 16.6 ENE 19 25 1015.2 - - - - - - - - -
24/04:30am 16.6 ENE 19 25 1015.3 - - - - - - - - -
24/04:20am 16.6 ENE 17 23 1015.5 - - - - - - - - -
24/04:10am 16.6 ENE 19 23 1015.7 - - - - - - - - -
24/04:00am 16.6 ENE 18 24 1015.8 - - - - - - - - -
24/03:50am 16.6 ENE 18 22 1015.9 - - - - - - - - -
24/03:40am 16.5 ENE 17 22 1016.1 - - - - - - - - -
24/03:30am 16.5 ENE 19 22 1016.2 - - - - - - - - -
24/03:20am 16.5 ENE 20 24 1016.3 - - - - - - - - -
24/03:10am 16.4 ENE 20 24 1016.5 - - - - - - - - -
24/03:00am 16.4 ENE 20 22 1016.8 - - - - - - - - -
24/02:50am 16.4 ENE 21 24 1016.9 - - - - - - - - -
24/02:40am 16.4 E 21 24 1017.1 - - - - - - - - -
24/02:30am 16.3 E 20 24 1017.3 - - - - - - - - -
24/02:20am 16.3 E 20 24 1017.4 - - - - - - - - -
24/02:10am 16.3 E 21 25 1017.5 - - - - - - - - -
24/01:50am 16.2 E 20 23 1018.0 - - - - - - - - -
24/01:40am 16.2 E 20 23 1018.2 - - - - - - - - -
24/01:30am 16.1 E 21 24 1018.4 - - - - - - - - -
24/01:20am 16.1 E 22 26 1018.4 - - - - - - - - -
24/01:10am 16.1 E 22 26 1018.6 - - - - - - - - -
24/01:00am 15.8 E 22 25 1018.7 - - - - - - - - -
24/12:50am 15.8 E 22 25 1018.8 - - - - - - - - -
24/12:40am 15.8 E 22 26 1019.0 - - - - - - - - -
24/12:30am 15.8 E 22 25 1019.1 - - - - - - - - -
24/12:20am 15.7 E 22 26 1019.2 - - - - - - - - -
24/12:10am 15.7 E 21 26 1019.4 - - - - - - - - -
24/12:00am 15.7 E 21 26 1019.5 - - - - - - - - -
 
Date/Time
EDT
Temp

°C
Wind Pressure Rain
since 9am
mm
Weather Cloud Vis
km
Sea
Height
m
Swell
Dir
 
Speed
knots
Gust
knots
hPa Trend Height
m
Period
s
Dir
23/11:50pm 15.6 E 21 25 1019.5 - - - - - - - - -
23/11:40pm 15.7 E 21 25 1019.4 - - - - - - - - -
23/11:30pm 15.7 E 20 24 1019.5 - - - - - - - - -
23/11:20pm 15.6 E 20 24 1019.5 - - - - - - - - -
23/11:10pm 15.6 E 21 26 1019.6 - - - - - - - - -
23/11:00pm 15.6 E 21 25 1019.7 - - - - - - - - -
23/10:50pm 15.6 E 20 25 1019.8 - - - - - - - - -
23/10:40pm 15.6 E 19 23 1019.9 - - - - - - - - -
23/10:30pm 15.6 E 20 24 1020.0 - - - - - - - - -
23/10:20pm 15.6 E 20 24 1020.1 - - - - - - - - -
23/10:10pm 15.6 E 20 24 1020.2 - - - - - - - - -
23/10:00pm 15.6 E 19 24 1020.4 - - - - - - - - -
23/09:50pm 15.6 E 20 23 1020.4 - - - - - - - - -
23/09:40pm 15.5 E 20 24 1020.5 - - - - - - - - -
23/09:30pm 15.6 E 21 24 1020.5 - - - - - - - - -
23/09:20pm 15.6 E 21 26 1020.6 - - - - - - - - -
23/09:10pm 15.6 E 21 24 1020.7 - - - - - - - - -
23/09:00pm 15.6 E 19 23 1020.8 - - - - - - - - -
23/08:50pm 15.6 E 19 24 1020.7 - - - - - - - - -
23/08:40pm 15.5 E 19 22 1020.7 - - - - - - - - -
23/08:30pm 15.4 E 18 21 1020.6 - - - - - - - - -
23/08:20pm 15.3 E 18 21 1020.6 - - - - - - - - -
23/08:10pm 15.3 E 16 21 1020.5 - - - - - - - - -
23/08:00pm 15.2 E 17 20 1020.4 - - - - - - - - -
23/07:50pm 15.2 E 18 21 1020.4 - - - - - - - - -
23/07:40pm 15.1 E 19 23 1020.3 - - - - - - - - -
23/07:30pm 15.1 ESE 19 22 1020.4 - - - - - - - - -
23/07:20pm 15.0 ESE 20 24 1020.4 - - - - - - - - -
23/07:00pm 14.9 ESE 19 23 1020.4 - - - - - - - - -
23/06:50pm 14.9 ESE 21 24 1020.3 - - - - - - - - -
23/06:40pm 14.9 ESE 21 24 1020.2 - - - - - - - - -
23/06:30pm 14.9 ESE 20 23 1020.2 - - - - - - - - -
23/06:20pm 14.8 ESE 21 25 1020.1 - - - - - - - - -
23/06:10pm 14.9 ESE 20 24 1020.1 - - - - - - - - -
23/06:00pm 14.9 ESE 19 24 1020.2 - - - - - - - - -
23/05:50pm 14.9 ESE 20 23 1020.1 - - - - - - - - -
23/05:40pm 15.0 ESE 18 22 1020.2 - - - - - - - - -
23/05:30pm 15.0 ESE 19 22 1020.2 - - - - - - - - -
23/05:20pm 15.1 ESE 21 24 1020.0 - - - - - - - - -
23/05:10pm 15.1 ESE 21 24 1019.9 - - - - - - - - -
23/05:00pm 15.2 ESE 22 25 1019.9 - - - - - - - - -
23/04:50pm 15.2 ESE 22 25 1019.8 - - - - - - - - -
23/04:40pm 15.5 ESE 20 23 1019.7 - - - - - - - - -
23/04:30pm 15.6 ESE 20 23 1019.7 - - - - - - - - -
23/04:20pm 15.7 ESE 20 23 1019.9 - - - - - - - - -
23/04:10pm 15.7 ESE 20 23 1020.1 - - - - - - - - -
23/04:00pm 15.7 ESE 19 21 1020.3 - - - - - - - - -
23/03:50pm 15.7 ESE 18 27 1020.4 - - - - - - - - -
23/03:40pm 15.7 ESE 17 20 1020.4 - - - - - - - - -
23/03:30pm 15.7 ESE 18 21 1020.5 - - - - - - - - -
23/03:20pm 15.7 ESE 17 20 1020.5 - - - - - - - - -
23/03:10pm 15.7 ESE 19 22 1020.6 - - - - - - - - -
23/03:00pm 15.7 ESE 18 21 1020.6 - - - - - - - - -
23/02:50pm 15.7 ESE 18 21 1020.6 - - - - - - - - -
23/02:30pm 15.7 ESE 18 22 1020.7 - - - - - - - - -
23/02:20pm 15.6 ESE 20 22 1020.8 - - - - - - - - -
23/02:10pm 15.6 ESE 18 23 1020.8 - - - - - - - - -
23/02:00pm 15.5 ESE 20 24 1020.7 - - - - - - - - -
23/01:50pm 15.4 ESE 22 25 1020.7 - - - - - - - - -
23/01:40pm 15.5 ESE 20 24 1020.7 - - - - - - - - -
23/01:30pm 15.6 ESE 18 23 1020.7 - - - - - - - - -
23/01:20pm 15.8 ESE 18 23 1020.8 - - - - - - - - -
23/01:10pm 15.8 ESE 19 22 1020.7 - - - - - - - - -
23/01:00pm 15.8 ESE 18 23 1020.7 - - - - - - - - -
23/12:40pm 15.7 ESE 19 22 1020.8 - - - - - - - - -
23/12:30pm 15.8 ESE 20 23 1020.8 - - - - - - - - -
23/12:20pm 15.6 ESE 21 24 1020.9 - - - - - - - - -
23/12:10pm 15.6 ESE 20 23 1020.9 - - - - - - - - -
23/12:00pm 15.6 ESE 19 22 1021.0 - - - - - - - - -
23/11:40am 15.5 ESE 22 26 1020.9 - - - - - - - - -
23/11:30am 15.5 ESE 21 26 1020.8 - - - - - - - - -
23/11:20am 15.6 ESE 21 26 1020.7 - - - - - - - - -
23/11:10am 15.6 ESE 21 26 1020.6 - - - - - - - - -
23/11:00am 15.5 ESE 21 24 1020.6 - - - - - - - - -
23/10:50am 15.5 ESE 22 25 1020.6 - - - - - - - - -
23/10:40am 15.5 ESE 22 30 1020.6 - - - - - - - - -
23/10:30am 15.6 ESE 22 25 1020.6 - - - - - - - - -
23/10:20am 15.6 ESE 22 26 1020.5 - - - - - - - - -
23/10:10am 15.6 ESE 21 25 1020.5 - - - - - - - - -
23/10:00am 15.6 ESE 22 26 1020.3 - - - - - - - - -
23/09:50am 15.7 ESE 21 25 1020.2 - - - - - - - - -
23/09:40am 15.8 ESE 21 25 1020.1 - - - - - - - - -
23/09:30am 15.8 ESE 22 26 1019.9 - - - - - - - - -
23/09:20am 15.8 ESE 22 25 1019.8 - - - - - - - - -
23/09:10am 15.8 ESE 25 28 1019.7 - - - - - - - - -
23/09:00am 15.9 ESE 20 23 1019.6 - - - - - - - - -
23/08:50am 15.9 ESE 21 27 1019.5 - - - - - - - - -
23/08:40am 15.9 ESE 21 26 1019.4 - - - - - - - - -
23/08:30am 15.9 SE 19 26 1019.6 - - - - - - - - -
23/08:20am 16.0 SE 18 22 1019.5 - - - - - - - - -
23/08:10am 16.0 SE 19 22 1019.2 - - - - - - - - -
23/08:00am 16.1 SE 19 23 1019.0 - - - - - - - - -
23/07:50am 16.1 SE 19 23 1018.8 - - - - - - - - -
23/07:40am 16.0 SE 18 21 1018.5 - - - - - - - - -
23/07:30am 16.0 SE 18 21 1018.3 - - - - - - - - -
23/07:20am 16.0 SE 18 20 1018.2 - - - - - - - - -
23/07:10am 15.9 SE 17 20 1018.1 - - - - - - - - -
23/07:00am 15.9 SE 17 20 1017.9 - - - - - - - - -
23/06:50am 15.9 ESE 17 21 1017.8 - - - - - - - - -
23/06:40am 16.0 ESE 17 19 1017.6 - - - - - - - - -
23/06:30am 16.1 ESE 17 20 1017.5 - - - - - - - - -
23/06:20am 16.1 SE 18 22 1017.2 - - - - - - - - -
23/06:10am 16.1 SE 20 23 1016.8 - - - - - - - - -
23/06:00am 16.1 ESE 19 23 1016.4 - - - - - - - - -
23/05:50am 16.0 ESE 20 22 1016.1 - - - - - - - - -
23/05:40am 16.0 ESE 20 23 1016.0 - - - - - - - - -
23/05:20am 16.4 SE 19 22 1015.9 - - - - - - - - -
23/05:10am 16.7 ESE 20 23 1015.8 - - - - - - - - -
23/05:00am 17.2 SE 19 21 1015.7 - - - - - - - - -
23/04:50am 17.6 SE 16 21 1015.8 - - - - - - - - -
23/04:40am 17.7 SSE 13 15 1016.0 - - - - - - - - -
23/04:30am 18.0 S 11 13 1016.1 - - - - - - - - -
23/04:20am 18.4 SSW 11 12 1016.2 - - - - - - - - -
23/04:10am 18.8 SSW 10 12 1016.1 - - - - - - - - -
23/04:00am 19.0 SW 11 14 1016.1 - - - - - - - - -
23/03:50am 19.4 WSW 13 16 1016.2 - - - - - - - - -
23/03:40am 19.9 WSW 8 11 1016.2 - - - - - - - - -
23/03:30am 19.8 SW 9 10 1016.0 - - - - - - - - -
23/03:20am 19.9 SW 9 12 1016.0 - - - - - - - - -
23/03:10am 19.8 SW 4 15 1015.9 - - - - - - - - -
23/03:00am 19.9 SSE 0 1 1015.5 - - - - - - - - -
23/02:50am 19.9 NE 0 1 1015.3 - - - - - - - - -
23/02:40am 20.5 NNE 3 9 1015.1 - - - - - - - - -
23/02:30am 20.7 N 10 13 1014.7 - - - - - - - - -
23/02:10am 20.0 NNW 9 14 1014.7 - - - - - - - - -
23/02:00am 19.9 N 10 12 1014.7 - - - - - - - - -
23/01:50am 19.4 N 10 12 1014.8 - - - - - - - - -
23/01:40am 18.9 N 9 12 1015.1 - - - - - - - - -
23/01:20am 19.1 NNW 8 10 1015.6 - - - - - - - - -
23/01:10am 19.5 NNW 7 15 1016.0 - - - - - - - - -
23/01:00am 19.5 N 6 8 1016.0 - - - - - - - - -
23/12:50am 19.5 NNE 5 6 1016.2 - - - - - - - - -
23/12:40am 19.4 NNE 5 7 1016.1 - - - - - - - - -
23/12:30am 19.5 NE 7 10 1015.7 - - - - - - - - -
23/12:20am 19.2 NE 10 12 1015.4 - - - - - - - - -
23/12:10am 19.0 NE 6 7 1015.7 - - - - - - - - -
23/12:00am 18.7 NNE 4 7 1016.0 - - - - - - - - -
 
Date/Time
EDT
Temp

°C
Wind Pressure Rain
since 9am
mm
Weather Cloud Vis
km
Sea
Height
m
Swell
Dir
 
Speed
knots
Gust
knots
hPa Trend Height
m
Period
s
Dir
22/11:50pm 18.8 NNE 2 6 1016.4 - - - - - - - - -
22/11:40pm 18.8 N 9 15 1016.0 - - - - - - - - -
22/11:30pm 18.7 NNE 15 17 1015.7 - - - - - - - - -
22/11:20pm 18.8 NNE 13 16 1015.8 - - - - - - - - -

Other Formats:

Comma delimited format used in spreadsheet applications
http://www.bom.gov.au/fwo/IDV60701/IDV60701.55039.axf

JavaScript Object Notation format (JSON) in row-major order
http://www.bom.gov.au/fwo/IDV60701/IDV60701.55039.json